Location: *
(33.8649°S, 62.1526°E)
Time: 11:48:38
(UTC+00:00)

Cosmos 2082 Rocket - Pass Details

Date: 17 January 2021
Orbit: 832 x 855 km, 71.0° (Epoch: 02 March)

Event Time Altitude Azimuth Distance (km) Brightness Sun altitude
Exits shadow 20:52:00 17° 235° (SW) 2,006 4.3 -34.3°
Drops below altitude 10° 20:55:33 10° 196° (SSW) 2,475 5.2 -34.1°
Sets 20:58:55 0° 176° (S) 3,413 6.4 -33.9°
